Regional Weather Roundup
Issued by NWS

Home | Current Version | Previous Version | Graphics & Text | Print | Product List | Glossary On
Versions: 1 2 3 4 5 6 7 8 9 10 11 12 13 14 15 16 17 18 19 20 21 22 23 24 25 26 27 28 29 30 31 32 33 34 35 36 37 38 39 40 41 42 43 44 45 46 47 48 49 50
184
ASUS43 KLSX 121710
RWRMO

WEATHER SUMMARY FOR MISSOURI
NATIONAL WEATHER SERVICE SPRINGFIELD MO
1100 AM CST FRI FEB 12 2016

NOTE: "FAIR" INDICATES FEW OR NO CLOUDS BELOW 12,000 FEET WITH NO
       SIGNIFICANT WEATHER AND/OR OBSTRUCTIONS TO VISIBILITY.
       CURRENT SKY AND/OR WEATHER CONDITIONS ARE NOT AVAILABLE FOR
       CHILLICOTHE AND FARMINGTON.

MOZ001>031-035>038-043-044-053-054-121800-
...NORTHERN AND WESTERN MISSOURI...

CITY           SKY/WX    TMP DP  RH WIND       PRES   REMARKS
KANSAS CTY INT PTSUNNY   34  23  64 N18G25    30.41R WCI  23
KANSAS C DTWN  PTSUNNY   36  23  59 NW12      30.42R WCI  28
LEE`S SUMMIT   CLOUDY    34  22  61 N16       30.41R WCI  24
ST JOSEPH      MOSUNNY   30  18  60 N21       30.45R WCI  17
CHILLICOTHE      N/A     28  17  63 NW10G18   30.43R WCI  19
KIRKSVILLE     CLOUDY    24  14  65 NW14      30.37R WCI  12

$$
MOZ066>068-077>081-088>096-101>105-121800-
...SOUTHWEST MISSOURI...

CITY           SKY/WX    TMP DP  RH WIND       PRES   REMARKS
SPRINGFIELD    SUNNY     40  24  53 N18       30.32R
JOPLIN         SUNNY     39  25  57 N13G23    30.38R

$$
MOZ032>034-039>042-045>050-055>058-069>072-121800-
...CENTRAL MISSOURI...

CITY           SKY/WX    TMP DP  RH WIND       PRES   REMARKS
COLUMBIA       MOSUNNY   32  24  72 NW16      30.33R WCI  21
JEFFERSON CITY PTSUNNY   33  23  66 W13       30.35R WCI  24
ROLLA          PTSUNNY   33  24  69 NW15      30.29R WCI  23
SEDALIA        SUNNY     35  21  56 N16       30.38R WCI  25
WHITEMAN AFB   SUNNY     35  22  57 NW17      30.38  WCI  25
WARRENSBURG    MOSUNNY   34  23  64 W14       30.41R WCI  24
OSAGE BEACH    MOSUNNY   37  21  52 N8        30.34S

$$
MOZ051-052-059>065-121800-
...EAST CENTRAL MISSOURI...

CITY           SKY/WX    TMP DP  RH WIND       PRES   REMARKS
ST LOUIS INTL  CLOUDY    31  23  72 NW10      30.31R WCI  22
SPIRIT OF STL  CLOUDY    31  24  75 NW9       30.31R WCI  23
ST CHARLES     CLOUDY    30  23  75 NW13      30.31R WCI  20

$$
MOZ072>076-082>087-097>100-106>115-121800-
...SOUTH CENTRAL AND SOUTHEAST MISSOURI...

CITY           SKY/WX    TMP DP  RH WIND       PRES   REMARKS
CAPE GIRARDEAU CLOUDY    35  25  66 NW10      30.28R WCI  27
FARMINGTON     CLOUDY    32  24  72 NW10      30.28R WCI  24
POPLAR BLUFF   PTSUNNY   41  24  51 N13G21    30.27R
WEST PLAINS    SUNNY     43  24  47 NW14      30.27R

$$




USA.gov is the U.S. government's official web portal to all federal, state and local government web resources and services.